GEFSNE_prec_meanprecacc_222.txt.gz
Total_Precipitation_Accumulation
2.14 2.22 2.24 2.28 2.14 1.98 1.95 2.05 2.19 1.99 1.83 1.64 1.44 1.26 1.35 1.36 1.43 1.25 1.20 1.13 1.01 0.94 0.91 0.83 0.77 0.81 1.01 1.35 1.48 1.44 1.54 1.76 2.13 2.45 2.29 2.15 2.03 1.99
1.93 2.00 2.05 2.10 2.10 2.06 2.02 2.02 2.01 1.96 1.87 1.68 1.40 1.14 1.21 1.28 1.42 1.24 1.27 1.35 1.14 0.99 0.88 0.87 0.84 0.79 0.83 0.96 1.05 0.95 0.90 0.98 1.26 1.88 2.13 2.08 2.09 2.15
1.70 1.73 1.83 1.90 2.06 2.09 2.05 2.01 1.99 1.92 1.79 1.70 1.46 1.23 1.22 1.31 1.38 1.30 1.33 1.33 1.16 1.08 0.99 0.94 0.85 0.88 0.91 0.93 1.00 0.93 0.78 0.71 0.76 0.98 1.29 1.48 1.65 1.88
1.49 1.50 1.61 1.67 1.81 1.93 2.02 1.93 1.94 1.89 1.89 1.84 1.61 1.38 1.31 1.33 1.39 1.37 1.28 1.26 1.24 1.22 1.12 1.05 0.96 0.89 0.94 0.93 1.02 1.07 0.98 0.83 0.74 0.74 0.86 1.03 1.21 1.38
1.26 1.31 1.36 1.42 1.55 1.66 1.76 1.85 1.86 1.79 1.89 1.89 1.68 1.44 1.32 1.30 1.34 1.32 1.29 1.35 1.25 1.26 1.22 1.12 1.07 1.00 1.00 1.00 0.99 1.07 1.06 0.98 0.83 0.79 0.84 0.91 1.01 1.11
1.02 1.02 1.04 1.06 1.18 1.31 1.42 1.57 1.74 1.86 1.94 1.97 1.82 1.53 1.35 1.32 1.37 1.43 1.43 1.37 1.38 1.26 1.26 1.25 1.23 1.18 1.12 1.11 1.02 0.99 1.04 1.04 0.92 0.85 0.82 0.84 0.85 0.85
1.02 0.91 0.83 0.83 0.93 1.02 1.11 1.37 1.57 1.74 1.89 1.95 1.87 1.69 1.51 1.42 1.37 1.37 1.47 1.58 1.58 1.41 1.35 1.26 1.23 1.11 1.01 1.04 1.03 0.96 0.94 0.94 0.88 0.81 0.74 0.67 0.68 0.72
0.96 0.95 0.94 0.89 0.77 0.74 0.80 0.97 1.21 1.42 1.61 1.74 1.77 1.63 1.46 1.42 1.46 1.47 1.46 1.53 1.59 1.45 1.41 1.48 1.41 1.27 1.13 1.02 1.08 1.01 0.94 0.92 0.94 0.91 0.84 0.77 0.75 0.74
0.91 0.90 0.93 0.93 0.97 0.87 0.81 0.80 0.83 1.01 1.26 1.47 1.50 1.46 1.52 1.44 1.40 1.36 1.34 1.34 1.36 1.38 1.40 1.44 1.44 1.32 1.15 1.09 1.18 1.12 1.05 0.98 0.96 0.99 0.98 0.91 0.83 0.78
0.96 0.97 1.01 1.04 1.01 1.12 1.09 1.00 0.93 0.92 1.01 0.97 1.07 1.35 1.46 1.47 1.46 1.48 1.51 1.42 1.36 1.34 1.30 1.34 1.29 1.24 1.13 1.06 1.12 1.06 1.00 0.94 0.94 0.95 0.99 1.02 1.01 0.96
0.93 0.92 0.98 1.02 1.21 1.25 1.17 1.15 1.07 1.01 1.15 1.16 1.17 1.24 1.31 1.31 1.32 1.41 1.47 1.42 1.36 1.30 1.23 1.15 1.12 1.20 1.25 1.16 1.11 1.17 1.10 1.02 0.97 1.00 1.02 1.03 1.09 1.10
1.00 0.94 1.09 1.06 1.08 1.03 1.00 1.19 1.17 1.06 0.97 0.93 0.95 1.00 1.01 1.07 1.15 1.18 1.33 1.35 1.29 1.30 1.19 1.14 1.10 1.18 1.25 1.17 1.05 1.02 1.07 1.11 1.07 1.04 1.08 1.10 1.12 1.06
1.00 1.01 0.97 1.05 0.88 0.84 0.89 1.04 1.20 1.14 1.09 1.11 1.03 0.97 0.95 0.95 0.91 0.97 1.12 1.22 1.25 1.24 1.12 1.09 1.13 1.17 1.11 1.03 1.02 0.92 0.85 0.88 0.88 0.87 0.90 0.98 1.04 1.00
0.88 0.78 0.77 0.84 0.70 0.66 0.65 0.79 0.97 1.01 1.01 1.07 1.04 0.97 0.92 0.88 0.86 0.86 0.95 1.03 1.07 1.09 1.12 1.09 1.10 1.12 1.10 0.95 0.89 0.88 0.85 0.81 0.80 0.79 0.74 0.88 0.93 0.97
0.69 0.67 0.59 0.56 0.55 0.51 0.54 0.64 0.72 0.87 1.00 1.03 0.92 0.85 0.86 0.89 0.90 0.88 0.84 0.87 0.90 0.91 0.92 0.91 0.97 1.07 1.12 1.02 0.90 0.85 0.87 0.88 0.84 0.82 0.81 0.78 0.76 0.81
0.48 0.40 0.38 0.41 0.47 0.49 0.49 0.51 0.58 0.80 0.98 0.97 0.88 0.82 0.84 0.88 0.95 0.98 0.95 0.89 0.89 0.90 0.88 0.88 0.90 0.97 0.98 0.92 0.91 0.88 0.87 0.88 0.86 0.90 0.93 0.89 0.81 0.75
0.61 0.52 0.45 0.43 0.43 0.46 0.49 0.54 0.66 0.77 0.88 0.84 0.83 0.81 0.82 0.89 0.93 0.99 1.05 1.02 0.95 0.90 0.95 1.01 1.04 1.05 1.02 1.00 0.97 0.92 0.94 0.92 0.91 0.95 0.98 0.96 0.89 0.81
0.61 0.62 0.61 0.60 0.59 0.58 0.56 0.53 0.54 0.63 0.71 0.78 0.79 0.80 0.80 0.81 0.82 0.86 0.94 0.99 0.97 0.93 0.88 0.93 1.04 1.15 1.16 1.08 0.96 0.92 0.98 0.99 0.99 1.00 0.98 0.94 0.87 0.85
0.52 0.54 0.54 0.54 0.55 0.54 0.51 0.49 0.47 0.47 0.54 0.65 0.76 0.83 0.86 0.85 0.84 0.81 0.79 0.83 0.82 0.82 0.81 0.81 0.89 1.00 1.10 1.05 0.92 0.80 0.85 0.94 0.97 0.95 0.92 0.88 0.80 0.79
0.34 0.40 0.40 0.40 0.41 0.42 0.40 0.38 0.38 0.41 0.43 0.47 0.58 0.71 0.86 0.96 0.98 0.95 0.90 0.88 0.88 0.83 0.81 0.79 0.78 0.83 0.93 0.93 0.85 0.74 0.73 0.81 0.88 0.86 0.81 0.81 0.80 0.86
0.19 0.23 0.25 0.27 0.30 0.30 0.31 0.32 0.33 0.36 0.40 0.43 0.46 0.51 0.63 0.79 0.91 0.96 1.02 1.10 1.07 1.01 0.97 0.93 0.89 0.93 0.91 0.94 0.87 0.68 0.63 0.67 0.73 0.74 0.75 0.80 0.79 0.77
0.18 0.20 0.21 0.22 0.26 0.29 0.29 0.30 0.31 0.33 0.36 0.40 0.42 0.47 0.55 0.64 0.74 0.83 0.89 0.95 1.01 1.05 1.04 1.01 1.00 1.01 0.99 1.02 0.93 0.76 0.68 0.67 0.70 0.77 0.80 0.87 0.87 0.81
0.19 0.20 0.21 0.23 0.25 0.30 0.38 0.41 0.38 0.36 0.39 0.44 0.49 0.53 0.56 0.61 0.65 0.74 0.80 0.85 0.91 0.94 0.96 0.97 0.96 0.95 0.93 0.92 0.92 0.89 0.80 0.75 0.73 0.72 0.69 0.79 0.83 0.77

GEFSNE_prec_meanprecacc_228.txt.gz
Total_Precipitation_Accumulation
2.16 2.23 2.25 2.30 2.18 2.01 1.98 2.08 2.21 2.00 1.84 1.65 1.44 1.26 1.35 1.36 1.44 1.26 1.20 1.14 1.02 0.95 0.91 0.84 0.78 0.82 1.02 1.35 1.48 1.45 1.55 1.78 2.15 2.48 2.32 2.18 2.06 2.01
1.93 2.00 2.05 2.11 2.12 2.10 2.06 2.05 2.04 1.98 1.88 1.68 1.40 1.14 1.21 1.28 1.43 1.24 1.28 1.36 1.15 1.00 0.89 0.87 0.84 0.79 0.84 0.97 1.06 0.96 0.92 1.01 1.29 1.91 2.16 2.12 2.12 2.18
1.70 1.73 1.84 1.90 2.07 2.12 2.09 2.04 2.01 1.93 1.80 1.71 1.46 1.23 1.23 1.31 1.38 1.31 1.34 1.34 1.17 1.08 0.99 0.94 0.85 0.88 0.91 0.93 1.01 0.93 0.79 0.73 0.78 1.00 1.32 1.51 1.68 1.91
1.50 1.51 1.62 1.68 1.82 1.94 2.04 1.95 1.95 1.90 1.89 1.84 1.61 1.38 1.31 1.33 1.39 1.37 1.28 1.26 1.24 1.22 1.12 1.05 0.96 0.89 0.94 0.93 1.02 1.07 0.98 0.83 0.75 0.77 0.88 1.06 1.25 1.42
1.27 1.32 1.37 1.43 1.56 1.67 1.77 1.86 1.87 1.80 1.90 1.89 1.68 1.44 1.32 1.30 1.34 1.32 1.29 1.35 1.25 1.26 1.22 1.12 1.07 1.00 1.00 1.00 0.99 1.07 1.06 0.98 0.83 0.80 0.87 0.95 1.04 1.13
1.03 1.03 1.05 1.08 1.19 1.32 1.43 1.58 1.74 1.87 1.95 1.97 1.82 1.54 1.36 1.32 1.37 1.43 1.43 1.37 1.38 1.26 1.26 1.25 1.23 1.18 1.12 1.11 1.02 0.99 1.04 1.04 0.92 0.85 0.83 0.87 0.89 0.88
1.03 0.92 0.85 0.84 0.94 1.02 1.12 1.38 1.58 1.74 1.89 1.95 1.88 1.70 1.52 1.43 1.37 1.37 1.47 1.58 1.58 1.42 1.35 1.26 1.23 1.11 1.01 1.04 1.03 0.96 0.94 0.95 0.89 0.81 0.74 0.68 0.69 0.74
0.98 0.96 0.95 0.90 0.79 0.75 0.81 0.98 1.22 1.43 1.62 1.74 1.78 1.65 1.48 1.43 1.47 1.47 1.46 1.53 1.60 1.45 1.41 1.48 1.41 1.27 1.13 1.02 1.08 1.01 0.94 0.92 0.94 0.92 0.84 0.78 0.75 0.75
0.93 0.92 0.94 0.94 0.99 0.88 0.82 0.80 0.84 1.01 1.26 1.48 1.51 1.48 1.54 1.46 1.41 1.36 1.34 1.34 1.36 1.38 1.40 1.45 1.44 1.32 1.15 1.09 1.19 1.13 1.05 0.99 0.97 1.00 0.99 0.92 0.84 0.78
0.98 0.99 1.02 1.05 1.02 1.13 1.10 1.00 0.93 0.92 1.02 0.97 1.08 1.36 1.48 1.49 1.47 1.48 1.51 1.43 1.36 1.34 1.30 1.34 1.29 1.24 1.13 1.06 1.12 1.06 1.00 0.95 0.95 0.96 1.00 1.03 1.02 0.97
0.95 0.94 0.99 1.03 1.22 1.26 1.17 1.15 1.07 1.01 1.15 1.16 1.18 1.25 1.33 1.33 1.33 1.41 1.47 1.43 1.37 1.30 1.23 1.15 1.12 1.20 1.25 1.16 1.12 1.17 1.11 1.03 0.98 1.00 1.02 1.04 1.10 1.10
1.02 0.96 1.11 1.07 1.08 1.04 1.00 1.19 1.17 1.06 0.97 0.94 0.95 1.01 1.03 1.08 1.16 1.18 1.33 1.35 1.29 1.30 1.19 1.14 1.10 1.18 1.25 1.17 1.05 1.03 1.07 1.11 1.07 1.04 1.08 1.10 1.12 1.06
1.02 1.02 0.98 1.06 0.89 0.85 0.90 1.05 1.20 1.15 1.10 1.11 1.04 0.98 0.95 0.95 0.92 0.98 1.12 1.22 1.25 1.24 1.12 1.09 1.14 1.17 1.11 1.03 1.02 0.92 0.85 0.88 0.88 0.87 0.90 0.98 1.04 1.00
0.89 0.80 0.78 0.85 0.71 0.66 0.66 0.79 0.98 1.01 1.02 1.08 1.05 0.98 0.92 0.89 0.86 0.87 0.95 1.04 1.07 1.10 1.12 1.09 1.10 1.12 1.10 0.95 0.89 0.88 0.85 0.81 0.80 0.79 0.74 0.88 0.93 0.98
0.70 0.68 0.61 0.58 0.57 0.52 0.55 0.65 0.73 0.88 1.01 1.04 0.93 0.86 0.86 0.89 0.90 0.88 0.85 0.88 0.91 0.92 0.92 0.91 0.98 1.07 1.12 1.02 0.90 0.85 0.87 0.89 0.84 0.82 0.81 0.78 0.76 0.81
0.49 0.42 0.40 0.43 0.49 0.50 0.50 0.52 0.59 0.81 0.99 0.98 0.89 0.83 0.85 0.89 0.96 0.99 0.96 0.90 0.90 0.90 0.89 0.88 0.90 0.97 0.98 0.93 0.92 0.88 0.87 0.88 0.86 0.90 0.93 0.89 0.81 0.75
0.64 0.54 0.47 0.44 0.44 0.48 0.50 0.55 0.67 0.79 0.89 0.85 0.85 0.82 0.83 0.90 0.94 0.99 1.06 1.04 0.96 0.91 0.95 1.01 1.05 1.06 1.03 1.00 0.98 0.93 0.94 0.92 0.91 0.95 0.98 0.97 0.89 0.81
0.64 0.65 0.63 0.62 0.61 0.59 0.58 0.54 0.55 0.64 0.72 0.79 0.80 0.81 0.82 0.82 0.83 0.87 0.95 1.01 0.99 0.94 0.89 0.93 1.05 1.16 1.16 1.08 0.97 0.92 0.98 1.00 1.00 1.01 0.99 0.94 0.87 0.85
0.56 0.58 0.58 0.57 0.57 0.56 0.54 0.51 0.49 0.49 0.55 0.66 0.78 0.84 0.87 0.87 0.86 0.82 0.81 0.84 0.83 0.83 0.82 0.82 0.90 1.02 1.11 1.06 0.92 0.81 0.86 0.94 0.98 0.96 0.93 0.89 0.81 0.79
0.40 0.46 0.47 0.47 0.47 0.47 0.44 0.42 0.41 0.43 0.45 0.49 0.59 0.73 0.88 0.98 0.99 0.96 0.91 0.89 0.89 0.84 0.83 0.80 0.79 0.84 0.95 0.94 0.86 0.75 0.73 0.82 0.88 0.87 0.82 0.82 0.81 0.86
0.24 0.29 0.32 0.34 0.36 0.36 0.37 0.37 0.38 0.39 0.42 0.45 0.48 0.53 0.65 0.81 0.92 0.97 1.04 1.11 1.09 1.02 0.98 0.95 0.91 0.95 0.93 0.96 0.89 0.69 0.63 0.68 0.74 0.75 0.77 0.82 0.81 0.78
0.23 0.24 0.26 0.28 0.32 0.35 0.35 0.35 0.35 0.36 0.39 0.42 0.44 0.49 0.56 0.66 0.76 0.85 0.91 0.97 1.04 1.07 1.06 1.03 1.02 1.03 1.01 1.04 0.95 0.77 0.69 0.67 0.70 0.78 0.81 0.88 0.89 0.83
0.23 0.24 0.25 0.27 0.29 0.34 0.42 0.45 0.42 0.40 0.42 0.47 0.52 0.55 0.58 0.63 0.67 0.75 0.82 0.87 0.93 0.95 0.97 0.99 0.97 0.96 0.95 0.93 0.94 0.90 0.81 0.76 0.74 0.73 0.69 0.80 0.85 0.79

GEFSNE_prec_meanprecacc_234.txt.gz
Total_Precipitation_Accumulation
2.16 2.23 2.25 2.31 2.18 2.02 1.99 2.09 2.22 2.02 1.86 1.67 1.46 1.27 1.36 1.37 1.44 1.26 1.21 1.14 1.03 0.96 0.92 0.84 0.78 0.82 1.03 1.36 1.48 1.45 1.56 1.78 2.16 2.49 2.34 2.22 2.11 2.07
1.94 2.01 2.05 2.11 2.13 2.10 2.06 2.06 2.05 1.99 1.89 1.71 1.42 1.15 1.22 1.29 1.44 1.25 1.28 1.37 1.16 1.01 0.90 0.88 0.85 0.80 0.84 0.97 1.06 0.96 0.92 1.01 1.29 1.92 2.17 2.14 2.15 2.21
1.71 1.74 1.84 1.91 2.08 2.12 2.09 2.05 2.02 1.93 1.81 1.72 1.47 1.24 1.24 1.32 1.39 1.31 1.35 1.35 1.18 1.09 1.00 0.94 0.85 0.88 0.91 0.94 1.01 0.93 0.79 0.73 0.79 1.01 1.33 1.52 1.71 1.94
1.50 1.52 1.62 1.69 1.83 1.95 2.05 1.96 1.96 1.91 1.90 1.85 1.62 1.39 1.32 1.34 1.41 1.39 1.29 1.27 1.24 1.23 1.12 1.05 0.96 0.89 0.94 0.93 1.03 1.07 0.99 0.83 0.76 0.77 0.89 1.07 1.26 1.44
1.27 1.32 1.37 1.44 1.57 1.68 1.78 1.87 1.88 1.81 1.91 1.90 1.69 1.45 1.33 1.31 1.34 1.33 1.30 1.36 1.26 1.26 1.23 1.12 1.08 1.00 1.00 1.00 0.99 1.07 1.06 0.98 0.83 0.81 0.87 0.95 1.05 1.15
1.04 1.03 1.06 1.08 1.19 1.33 1.44 1.59 1.75 1.88 1.96 1.98 1.83 1.54 1.36 1.33 1.37 1.43 1.44 1.38 1.39 1.26 1.26 1.25 1.23 1.19 1.12 1.11 1.02 0.99 1.04 1.05 0.92 0.85 0.83 0.88 0.89 0.89
1.04 0.93 0.85 0.85 0.94 1.03 1.13 1.39 1.59 1.75 1.90 1.96 1.88 1.70 1.52 1.43 1.38 1.38 1.47 1.58 1.59 1.42 1.36 1.27 1.23 1.11 1.01 1.04 1.03 0.96 0.94 0.95 0.89 0.81 0.75 0.69 0.70 0.75
0.98 0.96 0.95 0.91 0.79 0.75 0.82 0.99 1.23 1.44 1.63 1.75 1.79 1.65 1.48 1.44 1.47 1.47 1.46 1.54 1.60 1.45 1.41 1.48 1.41 1.27 1.13 1.02 1.09 1.01 0.94 0.92 0.94 0.92 0.85 0.78 0.76 0.75
0.93 0.92 0.95 0.94 0.99 0.89 0.83 0.81 0.85 1.02 1.27 1.48 1.52 1.48 1.54 1.46 1.41 1.36 1.34 1.34 1.36 1.38 1.40 1.45 1.44 1.32 1.15 1.09 1.19 1.13 1.06 0.99 0.97 1.00 0.99 0.92 0.84 0.78
0.99 1.00 1.03 1.06 1.02 1.13 1.11 1.01 0.94 0.93 1.03 0.98 1.08 1.37 1.48 1.49 1.48 1.48 1.51 1.43 1.36 1.35 1.30 1.34 1.29 1.25 1.13 1.06 1.12 1.06 1.00 0.95 0.95 0.96 1.00 1.03 1.02 0.97
0.97 0.95 1.01 1.03 1.23 1.27 1.18 1.15 1.08 1.02 1.16 1.17 1.19 1.26 1.33 1.34 1.34 1.42 1.48 1.43 1.37 1.31 1.24 1.16 1.12 1.21 1.25 1.16 1.12 1.17 1.11 1.03 0.98 1.00 1.02 1.04 1.10 1.10
1.05 0.98 1.13 1.09 1.10 1.05 1.02 1.20 1.18 1.07 0.98 0.94 0.96 1.02 1.04 1.10 1.17 1.19 1.34 1.36 1.30 1.30 1.19 1.14 1.10 1.18 1.25 1.17 1.05 1.03 1.07 1.11 1.07 1.04 1.08 1.10 1.12 1.06
1.04 1.04 0.99 1.07 0.91 0.86 0.92 1.06 1.21 1.15 1.10 1.12 1.05 0.99 0.97 0.97 0.93 0.99 1.14 1.23 1.26 1.25 1.13 1.10 1.14 1.17 1.11 1.03 1.02 0.93 0.85 0.88 0.89 0.88 0.90 0.98 1.04 1.00
0.92 0.81 0.79 0.86 0.72 0.68 0.67 0.80 0.99 1.02 1.02 1.09 1.06 0.99 0.93 0.90 0.87 0.88 0.96 1.05 1.08 1.10 1.12 1.10 1.11 1.13 1.11 0.96 0.90 0.89 0.85 0.81 0.80 0.79 0.74 0.88 0.93 0.98
0.73 0.71 0.62 0.59 0.58 0.53 0.57 0.66 0.73 0.88 1.01 1.04 0.94 0.87 0.87 0.90 0.91 0.89 0.86 0.90 0.94 0.94 0.94 0.93 1.00 1.09 1.14 1.03 0.90 0.85 0.87 0.89 0.84 0.83 0.81 0.78 0.76 0.81
0.51 0.44 0.41 0.44 0.50 0.51 0.51 0.53 0.59 0.81 0.99 0.98 0.90 0.84 0.86 0.90 0.97 1.00 0.97 0.92 0.93 0.93 0.91 0.91 0.93 0.99 0.99 0.93 0.92 0.89 0.87 0.88 0.86 0.90 0.93 0.89 0.81 0.75
0.66 0.56 0.49 0.47 0.47 0.50 0.51 0.56 0.68 0.79 0.90 0.86 0.86 0.83 0.84 0.91 0.96 1.01 1.08 1.06 0.98 0.92 0.97 1.04 1.08 1.08 1.04 1.01 0.98 0.93 0.95 0.92 0.91 0.95 0.98 0.97 0.89 0.81
0.68 0.68 0.67 0.65 0.63 0.61 0.59 0.56 0.57 0.65 0.73 0.80 0.81 0.82 0.83 0.84 0.85 0.89 0.97 1.03 1.01 0.95 0.90 0.95 1.07 1.18 1.18 1.09 0.97 0.93 0.99 1.00 1.00 1.01 0.99 0.94 0.87 0.85
0.60 0.62 0.62 0.60 0.58 0.57 0.55 0.53 0.51 0.50 0.57 0.67 0.79 0.86 0.89 0.89 0.88 0.85 0.84 0.87 0.85 0.85 0.84 0.83 0.91 1.03 1.13 1.06 0.93 0.81 0.86 0.95 0.98 0.96 0.93 0.89 0.81 0.79
0.44 0.50 0.51 0.50 0.49 0.49 0.47 0.44 0.43 0.45 0.48 0.52 0.62 0.74 0.89 0.99 1.01 0.98 0.93 0.92 0.91 0.86 0.85 0.83 0.81 0.86 0.96 0.95 0.86 0.75 0.74 0.82 0.89 0.88 0.83 0.82 0.81 0.86
0.28 0.34 0.37 0.38 0.39 0.39 0.40 0.40 0.41 0.43 0.46 0.49 0.52 0.56 0.67 0.82 0.94 0.99 1.06 1.13 1.12 1.05 1.01 0.97 0.94 0.98 0.96 0.98 0.90 0.70 0.64 0.68 0.75 0.76 0.78 0.83 0.82 0.78
0.27 0.29 0.30 0.32 0.35 0.38 0.39 0.39 0.40 0.41 0.44 0.47 0.49 0.52 0.59 0.68 0.78 0.88 0.94 1.00 1.06 1.10 1.09 1.06 1.05 1.07 1.05 1.07 0.97 0.78 0.70 0.68 0.71 0.79 0.82 0.90 0.90 0.84
0.27 0.27 0.29 0.30 0.33 0.38 0.46 0.49 0.46 0.44 0.45 0.50 0.56 0.59 0.61 0.66 0.70 0.78 0.85 0.90 0.96 0.98 1.00 1.01 1.00 0.99 0.98 0.96 0.95 0.91 0.82 0.76 0.75 0.74 0.70 0.81 0.86 0.81

GEFSNE_prec_meanprecacc_240.txt.gz
Total_Precipitation_Accumulation
2.17 2.24 2.26 2.32 2.19 2.03 2.01 2.11 2.24 2.04 1.88 1.69 1.47 1.28 1.37 1.37 1.44 1.26 1.21 1.14 1.03 0.96 0.92 0.85 0.79 0.83 1.03 1.37 1.50 1.46 1.56 1.79 2.17 2.50 2.36 2.23 2.14 2.09
1.95 2.02 2.06 2.12 2.13 2.11 2.08 2.08 2.06 2.00 1.91 1.72 1.43 1.16 1.23 1.30 1.45 1.25 1.29 1.37 1.17 1.02 0.91 0.89 0.86 0.81 0.84 0.97 1.06 0.97 0.93 1.01 1.30 1.93 2.18 2.15 2.17 2.24
1.71 1.74 1.85 1.91 2.08 2.13 2.10 2.06 2.03 1.94 1.82 1.73 1.49 1.26 1.25 1.33 1.40 1.32 1.35 1.35 1.18 1.10 1.01 0.95 0.86 0.89 0.92 0.94 1.01 0.94 0.80 0.74 0.79 1.01 1.33 1.53 1.72 1.97
1.50 1.52 1.63 1.69 1.83 1.95 2.05 1.96 1.96 1.91 1.91 1.86 1.64 1.42 1.35 1.36 1.44 1.40 1.29 1.27 1.25 1.24 1.13 1.06 0.97 0.90 0.95 0.93 1.03 1.08 0.99 0.84 0.76 0.77 0.89 1.07 1.27 1.46
1.28 1.33 1.38 1.44 1.57 1.68 1.78 1.87 1.89 1.81 1.91 1.91 1.70 1.48 1.36 1.32 1.36 1.34 1.30 1.36 1.26 1.27 1.23 1.13 1.08 1.01 1.01 1.00 0.99 1.07 1.07 0.99 0.84 0.81 0.88 0.96 1.05 1.16
1.04 1.04 1.06 1.08 1.20 1.33 1.44 1.59 1.76 1.88 1.96 1.99 1.84 1.56 1.38 1.33 1.38 1.43 1.44 1.38 1.39 1.27 1.27 1.25 1.24 1.19 1.12 1.12 1.02 0.99 1.05 1.05 0.93 0.85 0.84 0.88 0.90 0.90
1.05 0.93 0.86 0.85 0.95 1.03 1.13 1.39 1.59 1.76 1.90 1.97 1.89 1.72 1.53 1.44 1.39 1.39 1.48 1.59 1.59 1.43 1.36 1.27 1.23 1.11 1.01 1.04 1.03 0.97 0.94 0.95 0.89 0.82 0.75 0.69 0.70 0.75
0.99 0.97 0.96 0.91 0.79 0.76 0.82 0.99 1.23 1.44 1.63 1.76 1.79 1.66 1.49 1.45 1.49 1.49 1.48 1.55 1.61 1.46 1.42 1.48 1.41 1.28 1.13 1.03 1.09 1.01 0.94 0.93 0.94 0.92 0.85 0.78 0.76 0.75
0.95 0.94 0.96 0.95 0.99 0.89 0.83 0.82 0.85 1.02 1.27 1.49 1.53 1.49 1.55 1.47 1.43 1.38 1.36 1.36 1.37 1.39 1.41 1.45 1.45 1.32 1.15 1.09 1.19 1.13 1.06 0.99 0.97 1.00 0.99 0.92 0.84 0.78
1.00 1.01 1.05 1.07 1.03 1.14 1.11 1.01 0.94 0.93 1.03 0.98 1.09 1.37 1.49 1.50 1.49 1.50 1.53 1.45 1.38 1.36 1.31 1.35 1.30 1.25 1.14 1.06 1.12 1.06 1.00 0.96 0.95 0.96 1.00 1.03 1.02 0.97
0.98 0.96 1.02 1.04 1.24 1.28 1.19 1.16 1.08 1.02 1.17 1.18 1.20 1.26 1.34 1.35 1.35 1.43 1.50 1.45 1.39 1.32 1.25 1.16 1.12 1.21 1.26 1.16 1.12 1.17 1.11 1.03 0.98 1.01 1.03 1.04 1.10 1.11
1.06 0.99 1.14 1.10 1.11 1.06 1.02 1.21 1.18 1.07 0.98 0.95 0.96 1.02 1.04 1.10 1.17 1.20 1.35 1.38 1.32 1.32 1.20 1.15 1.11 1.19 1.26 1.18 1.05 1.03 1.07 1.11 1.07 1.04 1.08 1.10 1.12 1.06
1.06 1.05 1.01 1.08 0.92 0.87 0.92 1.06 1.21 1.16 1.10 1.12 1.05 0.99 0.97 0.97 0.93 1.00 1.15 1.25 1.28 1.27 1.14 1.11 1.15 1.18 1.12 1.03 1.02 0.93 0.85 0.88 0.89 0.88 0.90 0.98 1.04 1.00
0.93 0.83 0.81 0.88 0.74 0.70 0.69 0.82 1.00 1.03 1.03 1.09 1.06 0.99 0.93 0.90 0.88 0.89 0.98 1.06 1.10 1.12 1.14 1.12 1.13 1.14 1.12 0.96 0.90 0.89 0.85 0.82 0.80 0.79 0.75 0.88 0.93 0.98
0.74 0.73 0.65 0.62 0.60 0.56 0.59 0.69 0.75 0.89 1.02 1.04 0.94 0.87 0.87 0.90 0.91 0.90 0.88 0.92 0.96 0.96 0.96 0.95 1.02 1.10 1.15 1.04 0.91 0.86 0.87 0.89 0.84 0.83 0.82 0.78 0.77 0.82
0.53 0.46 0.44 0.47 0.53 0.53 0.53 0.55 0.61 0.83 1.00 0.98 0.90 0.84 0.86 0.90 0.98 1.01 0.98 0.93 0.94 0.95 0.93 0.93 0.95 1.01 1.01 0.94 0.93 0.89 0.88 0.88 0.86 0.90 0.93 0.89 0.81 0.75
0.68 0.58 0.52 0.50 0.50 0.53 0.54 0.58 0.70 0.81 0.91 0.86 0.87 0.84 0.85 0.92 0.97 1.02 1.09 1.07 0.99 0.94 0.99 1.05 1.10 1.12 1.07 1.04 1.00 0.94 0.95 0.93 0.92 0.96 0.99 0.97 0.89 0.82
0.70 0.70 0.69 0.67 0.65 0.64 0.63 0.59 0.60 0.67 0.76 0.82 0.82 0.84 0.84 0.85 0.87 0.91 0.99 1.04 1.02 0.97 0.91 0.96 1.09 1.22 1.23 1.13 1.00 0.94 1.00 1.01 1.01 1.03 1.00 0.95 0.87 0.85
0.62 0.64 0.65 0.62 0.61 0.60 0.58 0.56 0.54 0.54 0.62 0.72 0.82 0.89 0.91 0.91 0.90 0.87 0.86 0.89 0.87 0.86 0.85 0.84 0.93 1.05 1.16 1.09 0.94 0.82 0.87 0.96 1.00 0.98 0.95 0.90 0.82 0.80
0.47 0.53 0.54 0.53 0.52 0.52 0.49 0.47 0.47 0.49 0.52 0.57 0.66 0.78 0.93 1.03 1.03 1.01 0.97 0.96 0.94 0.88 0.86 0.85 0.82 0.87 0.98 0.97 0.87 0.76 0.75 0.84 0.91 0.90 0.85 0.85 0.83 0.87
0.30 0.36 0.39 0.40 0.42 0.42 0.43 0.44 0.45 0.47 0.50 0.53 0.55 0.59 0.71 0.86 0.97 1.02 1.09 1.19 1.17 1.09 1.04 1.00 0.96 1.01 0.98 1.01 0.93 0.71 0.65 0.70 0.77 0.79 0.81 0.86 0.84 0.80
0.29 0.31 0.33 0.34 0.38 0.41 0.42 0.43 0.44 0.45 0.48 0.52 0.53 0.57 0.64 0.73 0.82 0.91 0.98 1.06 1.12 1.15 1.13 1.09 1.07 1.10 1.09 1.11 1.00 0.81 0.72 0.70 0.73 0.81 0.84 0.92 0.92 0.85
0.29 0.29 0.31 0.33 0.35 0.40 0.49 0.53 0.50 0.48 0.50 0.55 0.61 0.64 0.66 0.71 0.75 0.82 0.89 0.96 1.02 1.02 1.03 1.04 1.02 1.01 1.01 0.99 1.00 0.95 0.85 0.79 0.78 0.77 0.73 0.83 0.88 0.82

GEFSNE_prec_meanprecacc_246.txt.gz
Total_Precipitation_Accumulation
2.18 2.25 2.28 2.34 2.21 2.04 2.01 2.11 2.24 2.04 1.89 1.69 1.47 1.29 1.37 1.38 1.45 1.28 1.21 1.15 1.03 0.96 0.92 0.85 0.79 0.84 1.04 1.39 1.52 1.48 1.57 1.80 2.17 2.51 2.37 2.25 2.15 2.11
1.96 2.04 2.08 2.13 2.14 2.12 2.09 2.08 2.07 2.01 1.92 1.72 1.43 1.16 1.24 1.31 1.45 1.26 1.29 1.38 1.17 1.02 0.91 0.89 0.87 0.82 0.85 0.99 1.08 0.98 0.94 1.03 1.31 1.94 2.19 2.16 2.18 2.25
1.72 1.75 1.87 1.92 2.10 2.14 2.11 2.07 2.04 1.95 1.82 1.73 1.49 1.26 1.26 1.33 1.41 1.33 1.35 1.36 1.19 1.11 1.01 0.96 0.87 0.90 0.93 0.96 1.03 0.95 0.81 0.75 0.80 1.02 1.34 1.53 1.72 1.97
1.51 1.53 1.64 1.70 1.84 1.96 2.06 1.98 1.97 1.92 1.91 1.87 1.64 1.43 1.35 1.37 1.44 1.41 1.30 1.27 1.25 1.24 1.14 1.07 0.98 0.91 0.95 0.94 1.04 1.09 1.00 0.85 0.77 0.77 0.89 1.07 1.27 1.47
1.28 1.33 1.39 1.45 1.58 1.69 1.79 1.88 1.90 1.82 1.92 1.91 1.71 1.50 1.37 1.33 1.37 1.34 1.31 1.36 1.26 1.28 1.25 1.14 1.09 1.01 1.01 1.00 1.00 1.09 1.09 1.00 0.84 0.81 0.88 0.96 1.06 1.16
1.05 1.04 1.07 1.09 1.21 1.34 1.45 1.60 1.77 1.89 1.97 1.99 1.85 1.59 1.40 1.34 1.39 1.44 1.45 1.39 1.40 1.27 1.28 1.27 1.26 1.20 1.12 1.12 1.03 1.01 1.07 1.08 0.94 0.85 0.84 0.88 0.90 0.90
1.05 0.94 0.87 0.86 0.96 1.04 1.14 1.40 1.61 1.77 1.91 1.98 1.90 1.72 1.54 1.45 1.40 1.39 1.49 1.59 1.59 1.43 1.38 1.29 1.25 1.12 1.02 1.05 1.04 0.97 0.95 0.96 0.90 0.82 0.75 0.69 0.70 0.76
1.00 0.98 0.97 0.92 0.80 0.76 0.83 1.00 1.25 1.46 1.64 1.77 1.80 1.66 1.49 1.45 1.49 1.49 1.48 1.56 1.61 1.46 1.42 1.49 1.42 1.28 1.14 1.03 1.09 1.01 0.95 0.93 0.95 0.93 0.86 0.79 0.76 0.75
0.95 0.94 0.97 0.95 1.00 0.90 0.84 0.83 0.86 1.04 1.29 1.50 1.54 1.49 1.55 1.48 1.43 1.39 1.37 1.37 1.38 1.39 1.42 1.46 1.45 1.33 1.16 1.10 1.19 1.13 1.06 1.00 0.98 1.01 1.00 0.92 0.84 0.78
1.01 1.02 1.05 1.07 1.03 1.15 1.12 1.02 0.95 0.94 1.04 1.00 1.10 1.38 1.50 1.51 1.50 1.51 1.54 1.45 1.38 1.36 1.32 1.36 1.31 1.25 1.14 1.07 1.12 1.07 1.00 0.96 0.96 0.97 1.01 1.04 1.02 0.97
0.98 0.97 1.02 1.05 1.24 1.29 1.19 1.17 1.08 1.03 1.17 1.19 1.21 1.27 1.35 1.35 1.35 1.43 1.50 1.45 1.39 1.32 1.25 1.18 1.13 1.22 1.26 1.17 1.12 1.18 1.12 1.03 0.98 1.01 1.03 1.05 1.10 1.11
1.07 1.00 1.15 1.11 1.11 1.07 1.03 1.22 1.18 1.07 0.98 0.95 0.97 1.03 1.05 1.11 1.18 1.20 1.35 1.38 1.32 1.32 1.21 1.16 1.12 1.20 1.26 1.18 1.06 1.03 1.08 1.12 1.08 1.04 1.08 1.10 1.12 1.06
1.06 1.05 1.01 1.09 0.92 0.88 0.93 1.07 1.22 1.16 1.11 1.13 1.05 1.00 0.98 0.97 0.94 1.00 1.15 1.25 1.28 1.27 1.14 1.12 1.16 1.19 1.13 1.04 1.03 0.93 0.86 0.88 0.89 0.88 0.90 0.98 1.05 1.00
0.94 0.84 0.82 0.91 0.76 0.71 0.71 0.83 1.01 1.04 1.03 1.10 1.07 0.99 0.94 0.90 0.88 0.89 0.98 1.07 1.10 1.12 1.14 1.12 1.13 1.15 1.13 0.97 0.91 0.90 0.86 0.82 0.81 0.80 0.75 0.89 0.93 0.98
0.76 0.75 0.68 0.65 0.63 0.58 0.62 0.71 0.77 0.90 1.03 1.05 0.95 0.88 0.88 0.91 0.92 0.90 0.88 0.92 0.96 0.96 0.96 0.95 1.02 1.11 1.16 1.05 0.92 0.86 0.89 0.90 0.85 0.83 0.83 0.79 0.77 0.82
0.55 0.48 0.47 0.49 0.55 0.56 0.56 0.57 0.63 0.85 1.02 1.00 0.92 0.85 0.86 0.91 0.98 1.01 0.99 0.93 0.94 0.95 0.93 0.93 0.95 1.01 1.02 0.95 0.94 0.90 0.89 0.90 0.88 0.91 0.94 0.90 0.82 0.75
0.69 0.59 0.53 0.51 0.52 0.55 0.57 0.61 0.72 0.83 0.94 0.89 0.88 0.85 0.86 0.93 0.97 1.02 1.10 1.07 1.00 0.94 0.99 1.06 1.11 1.12 1.08 1.05 1.02 0.95 0.96 0.94 0.93 0.98 1.00 0.98 0.90 0.82
0.71 0.70 0.70 0.68 0.66 0.66 0.65 0.62 0.63 0.70 0.79 0.85 0.85 0.85 0.85 0.86 0.87 0.92 1.00 1.05 1.03 0.98 0.92 0.97 1.09 1.23 1.24 1.15 1.02 0.96 1.01 1.02 1.02 1.04 1.02 0.97 0.89 0.86
0.64 0.65 0.66 0.63 0.62 0.61 0.60 0.59 0.58 0.58 0.65 0.75 0.85 0.91 0.93 0.93 0.92 0.89 0.88 0.91 0.89 0.88 0.86 0.86 0.94 1.07 1.18 1.11 0.96 0.83 0.88 0.97 1.01 1.00 0.98 0.93 0.84 0.81
0.49 0.55 0.56 0.55 0.54 0.54 0.52 0.50 0.50 0.52 0.57 0.62 0.71 0.82 0.97 1.06 1.06 1.03 0.99 0.98 0.97 0.90 0.88 0.86 0.84 0.90 1.00 0.99 0.89 0.78 0.77 0.86 0.93 0.93 0.88 0.87 0.84 0.89
0.32 0.39 0.41 0.42 0.43 0.44 0.45 0.46 0.47 0.49 0.52 0.55 0.59 0.64 0.76 0.90 1.00 1.06 1.12 1.22 1.19 1.11 1.06 1.02 0.98 1.04 1.01 1.03 0.95 0.73 0.68 0.74 0.81 0.82 0.84 0.89 0.86 0.82
0.32 0.34 0.36 0.36 0.39 0.42 0.44 0.45 0.46 0.47 0.50 0.53 0.55 0.60 0.68 0.77 0.86 0.94 1.01 1.09 1.15 1.17 1.16 1.12 1.09 1.12 1.11 1.14 1.03 0.84 0.76 0.75 0.78 0.85 0.89 0.95 0.95 0.87
0.30 0.31 0.33 0.35 0.36 0.41 0.50 0.54 0.52 0.49 0.51 0.57 0.63 0.66 0.69 0.75 0.79 0.86 0.92 0.98 1.04 1.04 1.05 1.06 1.04 1.03 1.03 1.03 1.04 0.99 0.89 0.82 0.81 0.80 0.76 0.86 0.90 0.84

GEFSNE_prec_meanprecacc_252.txt.gz
Total_Precipitation_Accumulation
2.19 2.26 2.30 2.37 2.25 2.09 2.06 2.16 2.27 2.06 1.90 1.70 1.48 1.29 1.37 1.38 1.46 1.28 1.22 1.15 1.04 0.97 0.94 0.86 0.80 0.84 1.06 1.42 1.57 1.52 1.60 1.83 2.21 2.53 2.38 2.26 2.16 2.12
1.97 2.05 2.10 2.15 2.16 2.15 2.12 2.12 2.10 2.03 1.93 1.73 1.44 1.17 1.24 1.31 1.46 1.26 1.30 1.39 1.18 1.03 0.91 0.90 0.87 0.82 0.86 1.00 1.10 1.01 0.96 1.05 1.33 1.95 2.21 2.17 2.20 2.27
1.72 1.76 1.88 1.94 2.12 2.17 2.15 2.11 2.08 1.99 1.84 1.74 1.49 1.27 1.26 1.33 1.41 1.33 1.36 1.36 1.20 1.12 1.02 0.97 0.88 0.90 0.93 0.97 1.04 0.97 0.83 0.77 0.82 1.04 1.35 1.55 1.74 1.99
1.51 1.53 1.64 1.71 1.85 1.97 2.08 1.99 2.00 1.96 1.94 1.87 1.64 1.43 1.37 1.37 1.45 1.41 1.30 1.28 1.26 1.25 1.15 1.08 0.99 0.91 0.96 0.96 1.05 1.10 1.02 0.86 0.78 0.80 0.91 1.08 1.28 1.47
1.29 1.34 1.40 1.47 1.60 1.72 1.82 1.91 1.93 1.86 1.95 1.92 1.71 1.52 1.39 1.34 1.38 1.35 1.31 1.36 1.26 1.28 1.26 1.15 1.11 1.03 1.03 1.02 1.01 1.09 1.09 1.01 0.85 0.82 0.88 0.96 1.06 1.16
1.05 1.04 1.07 1.11 1.24 1.38 1.49 1.64 1.80 1.92 2.00 2.01 1.85 1.60 1.42 1.36 1.41 1.46 1.46 1.40 1.40 1.30 1.32 1.30 1.28 1.23 1.15 1.14 1.03 1.01 1.08 1.09 0.94 0.86 0.84 0.89 0.90 0.90
1.06 0.94 0.87 0.87 0.97 1.06 1.16 1.42 1.63 1.79 1.94 2.00 1.91 1.73 1.55 1.46 1.40 1.40 1.49 1.59 1.60 1.44 1.40 1.32 1.28 1.13 1.03 1.05 1.04 0.97 0.95 0.97 0.91 0.83 0.76 0.70 0.71 0.76
1.00 0.99 0.97 0.92 0.80 0.77 0.84 1.01 1.25 1.47 1.66 1.78 1.82 1.67 1.50 1.45 1.49 1.49 1.49 1.56 1.62 1.47 1.43 1.50 1.43 1.29 1.14 1.03 1.09 1.01 0.95 0.94 0.95 0.93 0.86 0.79 0.77 0.76
0.95 0.95 0.98 0.96 1.01 0.90 0.85 0.83 0.87 1.05 1.30 1.52 1.55 1.51 1.56 1.48 1.44 1.39 1.37 1.37 1.39 1.40 1.43 1.47 1.46 1.33 1.16 1.10 1.19 1.13 1.06 1.00 0.98 1.01 1.00 0.93 0.85 0.79
1.02 1.02 1.07 1.09 1.04 1.16 1.13 1.03 0.96 0.95 1.05 1.00 1.11 1.40 1.51 1.52 1.51 1.52 1.55 1.46 1.39 1.37 1.33 1.37 1.31 1.26 1.14 1.07 1.13 1.07 1.00 0.96 0.96 0.97 1.01 1.04 1.03 0.98
0.99 0.98 1.04 1.06 1.25 1.30 1.20 1.17 1.09 1.04 1.18 1.20 1.22 1.29 1.37 1.36 1.36 1.44 1.51 1.46 1.40 1.33 1.26 1.18 1.14 1.22 1.27 1.17 1.12 1.18 1.12 1.03 0.98 1.01 1.03 1.05 1.11 1.11
1.08 1.01 1.16 1.12 1.12 1.08 1.04 1.22 1.19 1.08 0.99 0.96 0.98 1.04 1.06 1.12 1.19 1.21 1.36 1.39 1.33 1.33 1.21 1.16 1.12 1.20 1.27 1.18 1.06 1.04 1.08 1.12 1.08 1.05 1.09 1.11 1.13 1.07
1.07 1.07 1.03 1.11 0.94 0.90 0.95 1.08 1.23 1.18 1.12 1.14 1.07 1.01 0.99 0.99 0.95 1.01 1.15 1.25 1.28 1.27 1.14 1.12 1.16 1.19 1.13 1.05 1.03 0.93 0.86 0.89 0.90 0.89 0.91 0.99 1.05 1.01
0.94 0.84 0.83 0.92 0.78 0.74 0.73 0.85 1.03 1.06 1.05 1.11 1.08 1.01 0.95 0.92 0.89 0.90 0.98 1.07 1.10 1.12 1.14 1.12 1.14 1.15 1.14 0.98 0.91 0.90 0.86 0.83 0.82 0.81 0.76 0.89 0.94 0.99
0.76 0.76 0.69 0.66 0.65 0.60 0.63 0.73 0.79 0.92 1.04 1.07 0.97 0.89 0.90 0.93 0.93 0.92 0.89 0.93 0.97 0.96 0.96 0.95 1.02 1.11 1.16 1.05 0.92 0.87 0.89 0.90 0.86 0.84 0.84 0.80 0.78 0.83
0.55 0.49 0.47 0.50 0.55 0.57 0.57 0.58 0.64 0.86 1.04 1.02 0.93 0.87 0.88 0.92 1.00 1.03 1.00 0.95 0.95 0.96 0.94 0.94 0.96 1.02 1.02 0.96 0.95 0.91 0.90 0.91 0.89 0.92 0.95 0.92 0.84 0.77
0.70 0.59 0.53 0.51 0.52 0.55 0.57 0.61 0.73 0.84 0.96 0.91 0.91 0.88 0.88 0.95 1.00 1.04 1.12 1.09 1.01 0.96 1.00 1.06 1.12 1.13 1.09 1.05 1.02 0.96 0.97 0.94 0.94 0.98 1.02 1.00 0.92 0.84
0.73 0.71 0.70 0.69 0.67 0.66 0.66 0.63 0.64 0.72 0.80 0.87 0.88 0.88 0.88 0.89 0.91 0.95 1.02 1.07 1.05 0.99 0.94 0.98 1.10 1.24 1.25 1.16 1.02 0.96 1.02 1.03 1.03 1.06 1.05 0.99 0.90 0.87
0.65 0.66 0.66 0.64 0.63 0.62 0.61 0.60 0.59 0.60 0.68 0.77 0.88 0.94 0.96 0.96 0.95 0.92 0.91 0.93 0.91 0.90 0.88 0.87 0.95 1.09 1.19 1.12 0.96 0.84 0.90 0.99 1.04 1.03 1.00 0.94 0.85 0.81
0.49 0.56 0.57 0.56 0.55 0.55 0.53 0.51 0.51 0.54 0.59 0.64 0.73 0.85 1.00 1.08 1.09 1.06 1.02 1.00 0.99 0.92 0.90 0.88 0.87 0.92 1.03 1.01 0.92 0.80 0.80 0.89 0.96 0.94 0.89 0.88 0.85 0.90
0.33 0.39 0.42 0.43 0.44 0.45 0.46 0.47 0.49 0.51 0.54 0.58 0.62 0.67 0.78 0.93 1.03 1.09 1.15 1.25 1.22 1.13 1.08 1.03 1.01 1.07 1.04 1.06 0.97 0.75 0.69 0.76 0.82 0.83 0.85 0.90 0.88 0.84
0.33 0.35 0.37 0.37 0.40 0.43 0.45 0.46 0.47 0.48 0.51 0.55 0.57 0.62 0.70 0.79 0.89 0.98 1.04 1.13 1.18 1.20 1.18 1.14 1.12 1.15 1.14 1.16 1.05 0.85 0.77 0.75 0.78 0.87 0.90 0.97 0.96 0.89
0.32 0.33 0.34 0.37 0.38 0.43 0.52 0.55 0.53 0.50 0.52 0.58 0.64 0.67 0.71 0.76 0.80 0.88 0.95 1.02 1.08 1.08 1.08 1.08 1.06 1.05 1.05 1.04 1.06 1.01 0.90 0.83 0.81 0.81 0.77 0.88 0.92 0.86

GEFSNE_prec_meanprecacc_258.txt.gz
Total_Precipitation_Accumulation
2.20 2.28 2.32 2.39 2.28 2.11 2.08 2.18 2.30 2.09 1.92 1.71 1.49 1.30 1.39 1.40 1.48 1.30 1.23 1.16 1.05 0.98 0.94 0.87 0.81 0.85 1.09 1.47 1.62 1.56 1.63 1.86 2.23 2.55 2.41 2.28 2.18 2.14
1.98 2.05 2.11 2.16 2.17 2.16 2.13 2.14 2.12 2.06 1.95 1.74 1.45 1.18 1.25 1.32 1.47 1.27 1.31 1.39 1.18 1.03 0.92 0.91 0.88 0.83 0.87 1.03 1.13 1.03 0.98 1.06 1.35 1.97 2.22 2.19 2.22 2.29
1.74 1.77 1.89 1.95 2.13 2.19 2.16 2.13 2.10 2.01 1.87 1.75 1.50 1.27 1.27 1.34 1.42 1.33 1.36 1.36 1.20 1.12 1.03 0.98 0.88 0.91 0.95 0.98 1.06 0.98 0.84 0.78 0.83 1.05 1.37 1.56 1.76 2.01
1.53 1.54 1.66 1.72 1.87 1.99 2.09 2.01 2.01 1.98 1.96 1.89 1.66 1.45 1.39 1.39 1.45 1.42 1.30 1.28 1.26 1.27 1.17 1.10 1.00 0.92 0.97 0.97 1.07 1.12 1.03 0.87 0.79 0.81 0.92 1.09 1.29 1.48
1.30 1.35 1.40 1.48 1.61 1.73 1.83 1.92 1.94 1.87 1.97 1.94 1.72 1.52 1.40 1.34 1.38 1.36 1.31 1.37 1.27 1.30 1.27 1.16 1.12 1.04 1.04 1.03 1.02 1.10 1.10 1.02 0.86 0.83 0.90 0.97 1.07 1.17
1.06 1.05 1.08 1.12 1.25 1.39 1.50 1.65 1.81 1.93 2.01 2.02 1.87 1.61 1.42 1.37 1.42 1.47 1.47 1.40 1.41 1.31 1.33 1.31 1.29 1.24 1.16 1.15 1.04 1.02 1.09 1.10 0.95 0.87 0.85 0.89 0.91 0.92
1.07 0.95 0.88 0.88 0.98 1.07 1.17 1.43 1.64 1.80 1.94 2.01 1.92 1.73 1.56 1.47 1.41 1.41 1.50 1.60 1.60 1.45 1.40 1.33 1.29 1.14 1.03 1.06 1.05 0.98 0.95 0.97 0.91 0.83 0.77 0.70 0.71 0.77
1.01 0.99 0.98 0.93 0.82 0.78 0.84 1.01 1.26 1.47 1.66 1.79 1.83 1.68 1.50 1.47 1.50 1.51 1.50 1.57 1.62 1.47 1.43 1.51 1.45 1.30 1.15 1.04 1.10 1.02 0.95 0.94 0.95 0.93 0.86 0.80 0.77 0.76
0.96 0.95 0.99 0.97 1.02 0.91 0.85 0.84 0.87 1.06 1.31 1.52 1.56 1.51 1.57 1.50 1.45 1.41 1.39 1.38 1.39 1.40 1.43 1.47 1.47 1.35 1.17 1.11 1.20 1.14 1.06 1.00 0.99 1.01 1.01 0.93 0.86 0.79
1.03 1.03 1.08 1.10 1.06 1.18 1.14 1.04 0.97 0.96 1.06 1.02 1.12 1.41 1.53 1.54 1.53 1.53 1.56 1.47 1.39 1.37 1.33 1.37 1.31 1.26 1.15 1.07 1.13 1.07 1.01 0.96 0.96 0.97 1.01 1.04 1.03 0.98
1.03 1.00 1.06 1.08 1.27 1.32 1.21 1.18 1.10 1.04 1.19 1.20 1.23 1.30 1.38 1.38 1.38 1.46 1.52 1.48 1.41 1.33 1.26 1.18 1.14 1.22 1.27 1.17 1.13 1.18 1.12 1.03 0.98 1.01 1.03 1.05 1.11 1.12
1.12 1.05 1.19 1.15 1.15 1.10 1.06 1.23 1.20 1.09 1.00 0.96 0.98 1.04 1.07 1.13 1.20 1.23 1.37 1.41 1.34 1.33 1.21 1.17 1.12 1.20 1.27 1.18 1.06 1.04 1.08 1.12 1.08 1.05 1.09 1.11 1.13 1.07
1.09 1.08 1.04 1.12 0.96 0.91 0.96 1.09 1.24 1.19 1.13 1.15 1.07 1.02 1.00 1.00 0.96 1.02 1.17 1.27 1.30 1.29 1.15 1.12 1.16 1.19 1.14 1.05 1.03 0.94 0.86 0.89 0.90 0.89 0.91 0.99 1.06 1.02
0.95 0.85 0.84 0.93 0.79 0.75 0.73 0.86 1.04 1.07 1.06 1.12 1.09 1.02 0.96 0.93 0.91 0.92 1.00 1.08 1.12 1.14 1.16 1.13 1.15 1.16 1.14 0.98 0.91 0.90 0.86 0.83 0.82 0.81 0.76 0.90 0.96 1.01
0.77 0.77 0.69 0.66 0.65 0.60 0.64 0.75 0.80 0.93 1.05 1.08 0.98 0.90 0.90 0.93 0.94 0.93 0.90 0.94 0.98 0.97 0.97 0.96 1.03 1.12 1.17 1.06 0.92 0.87 0.89 0.91 0.86 0.85 0.84 0.81 0.80 0.85
0.56 0.50 0.48 0.51 0.56 0.57 0.58 0.59 0.65 0.87 1.05 1.03 0.94 0.87 0.89 0.93 1.01 1.04 1.02 0.96 0.97 0.97 0.95 0.95 0.98 1.03 1.03 0.97 0.95 0.92 0.90 0.91 0.89 0.93 0.96 0.93 0.85 0.78
0.72 0.61 0.55 0.54 0.55 0.58 0.59 0.63 0.74 0.85 0.96 0.92 0.92 0.89 0.89 0.96 1.01 1.06 1.14 1.11 1.03 0.97 1.01 1.07 1.13 1.14 1.10 1.06 1.03 0.97 0.98 0.95 0.95 0.99 1.03 1.01 0.94 0.85
0.74 0.72 0.71 0.69 0.68 0.67 0.66 0.64 0.65 0.73 0.81 0.88 0.88 0.89 0.89 0.90 0.92 0.96 1.04 1.09 1.07 1.01 0.96 1.00 1.12 1.25 1.26 1.17 1.03 0.97 1.03 1.04 1.04 1.07 1.06 1.02 0.92 0.89
0.68 0.67 0.68 0.65 0.63 0.63 0.61 0.60 0.60 0.61 0.68 0.78 0.88 0.95 0.97 0.97 0.96 0.94 0.93 0.95 0.93 0.92 0.90 0.89 0.98 1.10 1.20 1.13 0.97 0.85 0.90 1.00 1.05 1.05 1.02 0.97 0.87 0.83
0.52 0.58 0.59 0.58 0.56 0.56 0.53 0.52 0.52 0.55 0.60 0.65 0.74 0.86 1.01 1.10 1.10 1.08 1.04 1.02 1.00 0.94 0.91 0.90 0.89 0.94 1.04 1.03 0.93 0.81 0.81 0.91 0.98 0.96 0.91 0.89 0.87 0.91
0.35 0.41 0.44 0.44 0.45 0.46 0.47 0.49 0.51 0.53 0.55 0.59 0.63 0.68 0.79 0.95 1.05 1.10 1.17 1.27 1.24 1.15 1.09 1.05 1.02 1.08 1.06 1.07 0.99 0.76 0.71 0.77 0.84 0.85 0.87 0.91 0.89 0.85
0.36 0.37 0.39 0.39 0.42 0.44 0.46 0.47 0.48 0.50 0.53 0.56 0.58 0.63 0.71 0.81 0.91 1.00 1.07 1.15 1.20 1.21 1.19 1.15 1.13 1.17 1.16 1.18 1.07 0.87 0.79 0.77 0.80 0.88 0.91 0.98 0.97 0.90
0.35 0.36 0.37 0.39 0.40 0.44 0.53 0.56 0.54 0.51 0.53 0.59 0.65 0.69 0.72 0.78 0.82 0.90 0.96 1.03 1.10 1.10 1.09 1.10 1.08 1.07 1.07 1.07 1.08 1.03 0.92 0.85 0.83 0.82 0.79 0.89 0.93 0.87